CZ-4 DEB, 27536

Orbit data source: Space-Track

CZ-4 DEB, 27536 is space debris in SSO originally from a launch on Thu, 14 Oct 1999 UTC launched from the Taiyaun Space Center, China (TSC). Debris objects in space refer to the collection of defunct objects orbiting the Earth. Examples of debris include non-operational satellites, rocket bodies, and fragments generated from explosions, collisions, or faulty payload assembly.

Loading next visibility...
Identifier
27536, 1999-057MP
Orbit
SSO
Country
Flag of CNCN / PRC
Related business
Manufacturer
Unknown
Mission
Spacecraft
Bus & Motor
Unknown
Mass
Unknown
Launch date (UTC)
1999-10-14 (26 years ago)
Launch vehicle
Unknown
Launch site
Taiyaun Space Center, China (TSC)
Object type
Payload
Rocket body
Debris
Shape & HBR
Unknown shape, 0.1 m
Radar Cross Section
Small (<0.1 m²)

Expand to show TLE details & history
Last TLE update: 20 hours ago

TLE from 20 hours ago
0 CZ-4 DEB
1 27536U 99057MP  25288.54258920  .00005072  00000-0  92082-3 0  9991
2 27536  98.4901 312.5826 0028590 128.2036  24.2865 14.66402636248840
Epoch: 2025-10-15T13:01Z
TLE epoch observation values (Epoch: 2025-10-15T13:01:19.706Z)
Latitude
27.09031°
Longitude
-82.70928°
Altitude
657.569 km
Speed
7.541 km/s
True Right ascension
09h 07m 45s
True Declination
26° 56' 57"
Sunlit
Object was in daylight at epoch
Visualization orbit readout
Latitude
Unknown
Longitude
Unknown
Altitude
Unknown
Speed
Unknown
Apparent Right ascension
Unknown
Apparent Declination
Unknown
Sunlit
N/A
Visualization observer readout
Local Sidereal Time
03:51:24
Azimuth
Unknown
Elevation
Unknown
Doppler factor
Unknown
Orbital elements
Apogee altitude
689.812 km
Perigee altitude
649.512 km
Semi-major axis
7,047.799 km
Eccentricity
0.00286
Inclination
98.4901°
RAAN
312.5826°
Arg. of periapsis
128.2036°
True anomaly
24.42169°
Mean anomaly
24.2865°
Eccentric anomaly
24.35405°
Mean motion
3.66828 °/min
Orbital period
98.14 mins
BSTAR
0.00092082
Loading maneuver chart data...
Computing Atmospheric mass density...

Documentation

Showing up to 5 results
|